Regional Weather Roundup
Issued by NWS

Home | Current Version | Previous Version | Text Only | Print | Product List | Glossary Off
Versions: 1 2 3 4 5 6 7 8 9 10 11 12 13 14 15 16 17 18 19 20 21 22 23 24 25 26 27 28 29 30 31 32 33 34 35 36 37 38 39 40 41 42 43 44 45 46 47 48 49 50

000
ASUS43 KLMK 141002
RWRKY
KENTUCKY REGIONAL WEATHER ROUNDUP
NATIONAL WEATHER SERVICE LOUISVILLE KY
500 AM EST THU DEC 14 2017

NOTE "FAIR" INDICATES FEW OR NO CLOUDS BELOW 12,000 FEET
WITH NO SIGNIFICANT WEATHER AND/OR OBSTRUCTIONS TO VISIBILITY.

KYZ001>023-026-027-061>063-070>075-141100-
WESTERN AND SOUTH CENTRAL KENTUCKY

CITY           SKY/WX    TMP DP  RH WIND       PRES   REMARKS
PADUCAH        PTCLDY    37  23  56 N10       29.90R WCI  30
HENDERSON      CLOUDY    35  21  56 N13       29.91R WCI  26
OWENSBORO      CLOUDY    36  25  64 N14       29.90S WCI  27
HOPKINSVILLE   CLOUDY    36  29  77 N13       29.88R WCI  27
BOWLING GREEN  CLOUDY    38  28  67 NW3       29.88R
GLASGOW        NOT AVBL
$$

KYZ024-025-028>034-038-045-046-053-141100-
NORTH CENTRAL KENTUCKY

CITY           SKY/WX    TMP DP  RH WIND       PRES   REMARKS
LOUISVILLE/SDF CLOUDY    35  21  56 NW10G24   29.87R WCI  27
LOUISVILLE/LOU CLOUDY    36  23  59 NW8       29.87R WCI  30
FORT KNOX      CLOUDY    35  25  66 NW8       29.84R WCI  29
$$

KYZ035>037-039>044-047>052-055>060-089>105-141100-
NORTHEAST KENTUCKY

CITY           SKY/WX    TMP DP  RH WIND       PRES   REMARKS
LEXINGTON      CLOUDY    36  24  62 NW13G23   29.81R WCI  27
COVINGTON      CLOUDY    31  22  69 NW13      29.80R WCI  21
FRANKFORT      CLOUDY    36  22  56 NW8G17    29.82R WCI  30
$$

KYZ054-064>069-076>088-106>120-141100-
SOUTHEAST KENTUCKY

CITY           SKY/WX    TMP DP  RH WIND       PRES   REMARKS
JACKSON        CLOUDY    39  27  62 W13G28    29.76R WCI  31
LONDON         CLOUDY    39  28  64 NW16G22   29.80R WCI  30
SOMERSET       NOT AVBL
MIDDLESBORO    MOCLDY    41  26  55 W5        29.80R
MONTICELLO     CLOUDY    37  29  72 W13       29.85R WCI  29
$$




USA.gov is the U.S. government's official web portal to all federal, state and local government web resources and services.